Location: Newark
(51.0500°N, 12.4500°E)
Time: 12:12:32
(UTC+00:00)

Tiros 1 - Pass Details

Date: 19 February 2020
Orbit: 630 x 664 km, 48.4° (Epoch: 04 April)

Event Time Altitude Azimuth Distance (km) Brightness Sun altitude
Rises 08:10:51 0° 279° (W) 2,919 10.0 14.8°
Reaches altitude 10° 08:13:34 10° 265° (W) 2,011 9.3 15.1°
Maximum altitude 08:17:08 22° 214° (SW) 1,366 9.1 15.6°
Drops below altitude 10° 08:20:44 10° 163° (SSE) 2,013 10.9 16.0°
Sets 08:23:27 0° 148° (SSE) 2,924 12.1 16.3°
